This is the latest recevied weather packets stored in our database for station/object WD4IXD-WX. If no packets are shown the sender has not sent any weather packets the latest 10 day(s).
| Time | Temp. | Humidity | Pressure | Rain* | Wind** | Luminosity | Snow |
|---|---|---|---|---|---|---|---|
| 1777485904 | 4.44° C | 49% | 1019.1 hPa | 0 mm | - | 506 W/m² | - |
| 1777485604 | 4.44° C | 47% | 1019.2 hPa | 0 mm | - | 596 W/m² | - |
| 1777485304 | 3.89° C | 55% | 1019.2 hPa | 0 mm | - | 877 W/m² | - |
| 1777485004 | 3.33° C | 59% | 1019.4 hPa | 0 mm | - | 1111 W/m² | - |
| 1777484704 | 2.22° C | 61% | 1019.5 hPa | 0 mm | - | 559 W/m² | - |
| 1777484404 | 2.22° C | 59% | 1019.6 hPa | 0 mm | - | 146 W/m² | - |
| 1777484104 | 2.78° C | 57% | 1019.6 hPa | 0 mm | - | 139 W/m² | - |
| 1777483804 | 3.33° C | 57% | 1019.7 hPa | 0 mm | - | 120 W/m² | - |
| 1777483504 | 3.33° C | 54% | 1019.6 hPa | 0 mm | - | 116 W/m² | - |
| 1777483204 | 3.33° C | 55% | 1019.6 hPa | 0 mm | - | 98 W/m² | - |
| 1777482903 | 3.33° C | 55% | 1019.6 hPa | 0 mm | - | 137 W/m² | - |
| 1777482604 | 3.33° C | 57% | 1019.7 hPa | 0 mm | - | 276 W/m² | - |
| 1777482304 | 3.33° C | 56% | 1019.7 hPa | 0 mm | - | 243 W/m² | - |
| 1777482004 | 3.33° C | 55% | 1020.2 hPa | 0 mm | - | 218 W/m² | - |
| 1777481705 | 3.33° C | 54% | 1019.9 hPa | 0 mm | - | 156 W/m² | - |
| 1777481404 | 3.89° C | 54% | 1019.8 hPa | 0 mm | - | 176 W/m² | - |
| 1777481104 | 3.89° C | 54% | 1019.8 hPa | 0 mm | - | 165 W/m² | - |
| 1777480804 | 3.89° C | 56% | 1019.8 hPa | 0 mm | - | 367 W/m² | - |
| 1777480505 | 3.89° C | 57% | 1019.8 hPa | 0 mm | - | 462 W/m² | - |
| 1777480204 | 4.44° C | 57% | 1019.9 hPa | 0 mm | - | 559 W/m² | - |
| 1777479903 | 3.89° C | 57% | 1019.9 hPa | 0 mm | - | 745 W/m² | - |
| 1777479604 | 3.89° C | 60% | 1019.9 hPa | 0 mm | - | 733 W/m² | - |
| 1777479304 | 3.33° C | 61% | 1020 hPa | 0 mm | - | 791 W/m² | - |
| 1777479004 | 3.33° C | 63% | 1019.9 hPa | 0 mm | - | 722 W/m² | - |
| 1777478704 | 3.33° C | 62% | 1019.9 hPa | 0 mm | - | 708 W/m² | - |
* Rain latest hour (hover to see other rain measurements)
** Current wind speed in m/s (hover to see current wind gust speed)